Location: Chena
(64.8152°N, 147.9227°W)
Time: 22:18:14
(UTC+00:00)

Vanguard 2 - Pass Details

Date: 14 March 2021
Orbit: 552 x 2938 km, 32.9° (Epoch: 11 April)

Event Time Altitude Azimuth Distance (km) Brightness Sun altitude
Rises 13:03:34 0° 223° (SW) 4,971 - -19.5°
Reaches altitude 10° 13:10:19 10° 193° (SSW) 4,598 - -18.9°
Exits shadow 13:10:45 10° 191° (SSW) 4,606 11.0 -18.9°
Maximum altitude 13:13:41 11° 178° (S) 4,748 11.2 -18.7°
Drops below altitude 10° 13:17:21 10° 163° (SSE) 5,118 11.5 -18.3°
Sets 13:26:36 0° 137° (SE) 6,597 12.4 -17.5°
